Погода в Кирпичном

Россия / Ханты-Мансийский автономный округ - Югра     61°04′49″N   68°40′04″E
темп.,
°C
ветер,
м/с
пор.,
м/с
влажн.,
%
обл.,
%
осадки,
мм/ч
давл.,
гПа
погр.,
м
13 июня, вс
вс1323:00+18з465581 0.0 101868
02:00+16зсз595864 0.0 1019116
05:00+16зсз5115820 0.0 1020189
08:00+22зсз684191 0.0 1020444
11:00+26з663182 0.0 10201189
14:00+27зюз5528100 0.0 10202009
17:00+27зюз562697 0.0 10192187
20:00+23юз4546100 0.0 101976
14 июня, пн
пн1423:00+18юз4653100 0.0 102068
02:00+16юз47590 0.0 101981
05:00+17юз496421 0.0 1019195
08:00+22юз575186 0.0 1019454
11:00+26юз783773 0.0 10181817
14:00+27юз893461 0.0 10162258
17:00+26зюз1541100 0.1 10151248
20:00+25ююз594790 0.0 1013195
15 июня, вт
вт1523:00+20св117196 0.4 101215
02:00+17юз3480100 0.5 101148
05:00+17зюз4117999 0.5 1011283
08:00+22зюз586439 0.0 1010572
11:00+27зюз7947100 0.0 10091528
14:00+29зюз8103667 0.0 10073054
17:00+26з9125093 0.0 10071322
20:00+23з6116561 0.5 1007615
16 июня, ср
ср1623:00+19зюз458098 0.5 100766
02:00+17з47846 0.0 1008105
05:00+18зсз37775 0.0 1008197
08:00+21зсз585370 0.0 1009741
11:00+24зсз6836100 0.0 10091615
14:00+26сз5727100 0.0 10081961
17:00+27сз362843 0.0 10072357
20:00+24всв334199 0.0 100625
17 июня, чт
чт1723:00+20вюв444892 0.0 100637
02:00+18юз226547 0.0 100511
05:00+19ююз36735 0.0 1004149
08:00+24ю57565 0.0 1002556
11:00+28ююз79432 0.0 10001735
14:00+28ююз684286 0.0 9971016
17:00+19з10178197 1.2 998878
20:00+18зюз358449 1.2 998318